Weather History for Bermuda, Bermuda

Change the Weather History Date:

Friday, August 21, 2009

  Actual Average Record
Temperature  
Mean Temperature 82 °F -  
Max Temperature 85 °F 82 °F - ()
Min Temperature 78 °F 74 °F - ()
Cooling Degree Days 16    
Growing Degree Days 32 (Base 50)    
Moisture  
Dew Point 75 °F    
Average Humidity 76    
Maximum Humidity 84    
Minimum Humidity 61    
Precipitation  
Precipitation 0.35 in - - ()
Sea Level Pressure  
Sea Level Pressure 30.01 in    
Wind  
Wind Speed 21 mph ()    
Max Wind Speed 46 mph    
Max Gust Speed 60 mph    
Visibility 5.6 miles    
Events Rain , Thunderstorm    
T = Trace of Precipitation, MM = Missing Value Source: Averaged Metar Reports

Daily Weather History Graph

Daily Weather History Graph

Search for Another Location

Airport:

Trip Planner

Search our weather history database for the weather conditions in past years. The results will help you decide how hot, cold, wet, or windy it might be!

Date:

Astronomy

Aug. 21, 2009 Rise Set
Actual Time 6:46 AM ADT 7:56 PM ADT
Civil Twilight 6:21 AM ADT 8:21 PM ADT
Nautical Twilight 5:50 AM ADT 8:52 PM ADT
Astronomical Twilight 5:19 AM ADT 9:23 PM ADT
Moon 8:02 AM ADT (8/21) 8:35 PM ADT (8/21)
Length of Visible Light 14h 00m
Length of Day
13h 09m
New Moon, 2% of the Moon is Illuminated
Aug 21
New Moon
Aug 27
First Quarter
Sep 4
Full
Sep 11
Last Quarter
Sep 18
New

Hourly Weather History & Observations

Time (ADT) Temp. Heat Index Dew Point Humidity Pressure Visibility Wind Dir Wind Speed Gust Speed Precip Events Conditions
12:00 AM 83 °F - 73 °F 64% 30.16 in 9 mi East 10.4 mph - -   Partly Cloudy
12:55 AM 82.4 °F 88.2 °F 73.4 °F 74% 30.12 in 6.2 mi East 16.1 mph - N/A   Mostly Cloudy
1:55 AM 82.4 °F 87.2 °F 71.6 °F 70% 30.12 in 6.2 mi ESE 17.3 mph - N/A   Scattered Clouds
2:55 AM 82.4 °F 88.2 °F 73.4 °F 74% 30.09 in 6.2 mi ESE 16.1 mph - N/A   Scattered Clouds
3:00 AM 82 °F - 73 °F 68% 30.11 in 9 mi East 15.0 mph - -   Scattered Clouds
3:55 AM 82.4 °F 88.2 °F 73.4 °F 74% 30.09 in 6.2 mi East 13.8 mph - N/A   Mostly Cloudy
5:55 AM 82.4 °F 88.2 °F 73.4 °F 74% 30.06 in 6.2 mi East 16.1 mph - N/A   Mostly Cloudy
6:00 AM 82 °F - 74 °F 70% 30.09 in 9 mi East 15.0 mph - -   Scattered Clouds
6:55 AM 82.4 °F 89.5 °F 75.2 °F 79% 30.06 in 6.2 mi East 17.3 mph - N/A   Mostly Cloudy
7:55 AM 84.2 °F 92.3 °F 75.2 °F 74% 30.09 in 6.2 mi East 18.4 mph - N/A   Mostly Cloudy
8:55 AM 84.2 °F 92.3 °F 75.2 °F 74% 30.09 in 6.2 mi East 19.6 mph - N/A   Mostly Cloudy
9:00 AM 84 °F - 74 °F 66% 30.10 in 9 mi East 19.6 mph - -   Mostly Cloudy
9:55 AM 84.2 °F 92.3 °F 75.2 °F 74% 30.09 in 6.2 mi East 21.9 mph - N/A   Overcast
10:55 AM 78.8 °F - 69.8 °F 74% 30.09 in 6.2 mi East 20.7 mph - N/A Rain Light Rain Showers
11:55 AM 82.4 °F 89.5 °F 75.2 °F 79% 30.09 in 6.2 mi ENE 16.1 mph - N/A   Overcast
12:05 PM 84.2 °F 94.1 °F 77.0 °F 79% 30.09 in 6.2 mi East 15.0 mph - N/A   Overcast
12:22 PM 84.2 °F 94.1 °F 77.0 °F 79% 30.06 in 5.6 mi East 24.2 mph - N/A Rain Light Rain
12:55 PM 82.4 °F 90.9 °F 77.0 °F 84% 30.06 in 5.0 mi ESE 32.2 mph - N/A Rain Light Rain
1:41 PM 82.4 °F 88.2 °F 73.4 °F 74% 30.06 in 6.2 mi ESE 28.8 mph - N/A Rain Light Rain
1:55 PM 82.4 °F 88.2 °F 73.4 °F 74% 30.04 in 5.6 mi ESE 27.6 mph - N/A Rain Light Rain
2:55 PM 82.4 °F 87.2 °F 71.6 °F 70% 30.04 in 5.6 mi ESE 29.9 mph - N/A Rain Light Rain
3:00 PM 82 °F - 71 °F 61% 30.04 in 6 mi East 25.3 mph - - Rain Light Rain
3:55 PM 82.4 °F 89.5 °F 75.2 °F 79% 30.01 in 6.2 mi East 26.5 mph - N/A   Overcast
4:34 PM 82.4 °F 88.2 °F 73.4 °F 74% 29.98 in 6.2 mi ESE 32.2 mph - N/A   Overcast
4:55 PM 82.4 °F 89.5 °F 75.2 °F 79% 29.98 in 5.0 mi East 31.1 mph - N/A Rain Light Rain
5:37 PM 80.6 °F 86.2 °F 75.2 °F 84% 29.95 in - East 35.7 mph - N/A Rain Rain
5:55 PM 80.6 °F 86.2 °F 75.2 °F 84% 29.95 in 2.5 mi East 35.7 mph - N/A Rain Light Rain
6:00 PM 81 °F - 76 °F 80% 29.97 in 2 mi East 31.1 mph - - Rain Light Rain
6:55 PM 82.4 °F 90.9 °F 77.0 °F 84% 29.92 in 5.0 mi East 34.5 mph - N/A Rain Light Rain
7:35 PM 82.4 °F 90.9 °F 77.0 °F 84% 29.92 in - ESE 39.1 mph - N/A Rain , Thunderstorm Thunderstorms and Rain
7:55 PM 82.4 °F 90.9 °F 77.0 °F 84% 29.92 in - ESE 39.1 mph - N/A Rain , Thunderstorm Thunderstorms and Rain
8:55 PM 82.4 °F 90.9 °F 77.0 °F 84% 29.86 in 3.7 mi ESE 46.0 mph 59.8 mph N/A Rain , Thunderstorm Thunderstorms and Rain
9:00 PM 82 °F - 76 °F 79% 29.88 in 4 mi East 42.6 mph - - Rain , Thunderstorm Thunderstorms and Rain
9:36 PM 80.6 °F 86.2 °F 75.2 °F 84% 29.89 in 2.5 mi SE 33.4 mph 50.6 mph N/A Rain Rain
9:55 PM 82.4 °F 90.9 °F 77.0 °F 84% 29.86 in 3.7 mi ESE 39.1 mph 57.5 mph N/A   Overcast
10:44 PM 84.2 °F 94.1 °F 77.0 °F 79% 29.89 in 3.7 mi SE 39.1 mph 51.8 mph N/A Rain Light Rain
10:55 PM 84.2 °F 92.3 °F 75.2 °F 74% 29.89 in 3.7 mi SE 38.0 mph 50.6 mph N/A Rain Light Rain
11:55 PM 84.2 °F 92.3 °F 75.2 °F 74% 29.86 in 5.0 mi SE 35.7 mph 55.2 mph N/A   Overcast